Regional Weather Roundup
Issued by NWS

Home | Current Version | Previous Version | Text Only | Print | Product List | Glossary Off
Versions: 1 2 3 4 5 6 7 8 9 10 11 12 13 14 15 16 17 18 19 20 21 22 23 24 25 26 27 28 29 30 31 32 33 34 35 36 37 38 39 40 41 42 43 44 45 46 47 48 49 50

000
ASUS43 KOAX 201210
RWRNE

WEATHER ROUNDUP FOR NEBRASKA
NATIONAL WEATHER SERVICE OMAHA NE
700 AM CDT WED SEP 20 2017

NOTES: SATELLITE DATA IS BEING USED TO AUGMENT CLOUD COVER ABOVE
       12000 FEET.
       "FAIR" INDICATES FEW OR NO CLOUDS BELOW 12,000 FEET WITH NO
       SIGNIFICANT WEATHER AND/OR OBSTRUCTIONS TO VISIBILITY.


NEZ001>004-019>022-054>056-201300-
NEBRASKA PANHANDLE

CITY           SKY/WX    TMP DP  RH WIND       PRES   REMARKS
SCOTTSBLUFF    CLOUDY    51  31  46 W7        29.92R
6HR MIN TEMP:  48; 6HR MAX TEMP:  56;

ALLIANCE       CLOUDY    48  32  53 NW13      29.89R
6HR MIN TEMP:  47; 6HR MAX TEMP:  53;

CHADRON        CLEAR     40  32  73 SW6       29.88R
6HR MIN TEMP:  40; 6HR MAX TEMP:  48;

GORDON         FAIR      46  33  61 W6        29.86S
6HR MIN TEMP:  45; 6HR MAX TEMP:  56;

KIMBALL        CLOUDY    52  28  38 NW18G28   29.93R
SIDNEY         CLEAR     50  30  46 W6        29.93R
6HR MIN TEMP:  45; 6HR MAX TEMP:  54;

$$

NEZ057>060-069>072-079>082-201300-
SOUTHWEST NEBRASKA

CITY           SKY/WX    TMP DP  RH WIND       PRES   REMARKS
NORTH PLATTE   CLEAR     39  36  89 CALM      29.90R
6HR MIN TEMP:  38; 6HR MAX TEMP:  51;

IMPERIAL       CLOUDY    41  34  76 MISG      29.94R
6HR MIN TEMP:  41; 6HR MAX TEMP:  54;

LEXINGTON      CLEAR     45  42  89 NW6       29.87R
MCCOOK         CLEAR     43  36  76 NW9       29.90R
6HR MIN TEMP:  43; 6HR MAX TEMP:  57;

OGALLALA       CLOUDY    39  36  88 W6        29.91R WCI  35
$$

NEZ005>010-023>029-035>040-094-201300-
NORTH CENTRAL NEBRASKA

CITY           SKY/WX    TMP DP  RH WIND       PRES   REMARKS
VALENTINE      CLOUDY    50  47  89 S3        29.86R
6HR MIN TEMP:  50; 6HR MAX TEMP:  58;

AINSWORTH      CLOUDY    49  47  93 W5        29.87R
BROKEN BOW     CLEAR     45  41  86 CALM      29.87R
6HR MIN TEMP:  45; 6HR MAX TEMP:  62;

O`NEILL        CLEAR     49  48  97 W7        29.84R
ORD            CLEAR     49  44  83 NW8       29.85R
6HR MIN TEMP:  47; 6HR MAX TEMP:  61;

THEDFORD       CLOUDY    47  42  82 CALM      29.87S
$$

NEZ041-046>049-061>064-073>077-083>087-201300-
SOUTH CENTRAL NEBRASKA

CITY           SKY/WX    TMP DP  RH WIND       PRES   REMARKS
GRAND ISLAND   CLEAR     53  50  89 NW8       29.83R
6HR MIN TEMP:  51; 6HR MAX TEMP:  66;

AURORA         PTCLDY    54  50  89 NW7       29.81R
HASTINGS       CLEAR     54  47  77 NW9       29.83R
6HR MIN TEMP:  54; 6HR MAX TEMP:  68;

HEBRON         CLEAR     60  51  72 N7        29.77R
HOLDREGE       CLEAR     49  44  81 NW8       29.85R
KEARNEY        CLEAR     52  46  80 NW8       29.85R
YORK           CLEAR     55  52  88 N6        29.79R
$$

NEZ011>018-030>034-042>045-201300-
NORTHEAST NEBRASKA

CITY           SKY/WX    TMP DP  RH WIND       PRES   REMARKS
NORFOLK        PTCLDY    55  51  86 NW6       29.79R
6HR MIN TEMP:  53; 6HR MAX TEMP:  67;

ALBION         CLEAR     51  48  90 NW7       29.81R
BLAIR          MOCLDY    65  57  74 N9        29.71R
COLUMBUS       PTCLDY    55  52  89 MISG      29.79R
FREMONT        CLEAR     59  55  85 NW7       29.75R
TEKAMAH        CLEAR     59  54  83 NW8       29.74R
6HR MIN TEMP:  58; 6HR MAX TEMP:  77; 6HR PCP: TRACE;

WAYNE          CLEAR     54  51  91 CALM      29.78R
$$

NEZ050>053-065>068-078-088>093-201300-
SOUTHEAST NEBRASKA

CITY           SKY/WX    TMP DP  RH WIND       PRES   REMARKS
LINCOLN        CLEAR     64  51  62 N7        29.74R
6HR MIN TEMP:  64; 6HR MAX TEMP:  80;

OMAHA EPPLEY   CLOUDY    68  60  75 N9        29.70R
6HR MIN TEMP:  68; 6HR MAX TEMP:  78;

BEATRICE       CLEAR     62  56  79 NW6       29.74R
FALLS CITY     CLEAR     74  69  85 S7        29.70R
6HR MIN TEMP:  74; 6HR MAX TEMP:  79;

NEBRASKA CITY  CLEAR     71  71 100 S8        29.69R
PLATTSMOUTH    PTCLDY    69  69  99 W6        29.69R
$$

NEZ044-045-051>053-067-201300-
OMAHA AREA

CITY           SKY/WX    TMP DP  RH WIND       PRES   REMARKS
OMAHA EPPLEY   CLOUDY    68  60  75 N9        29.70R
6HR MIN TEMP:  68; 6HR MAX TEMP:  78;

BLAIR          MOCLDY    65  57  74 N9        29.71R
FREMONT        CLEAR     59  55  85 NW7       29.75R
MILLARD        CLOUDY    69  61  76 NW8       29.71R
OFFUTT AFB     CLOUDY    71  63  76 N10       29.69R
PLATTSMOUTH    PTCLDY    69  69  99 W6        29.69R
WAHOO          FAIR      59  55  84 NW10      29.74R
$$




USA.gov is the U.S. government's official web portal to all federal, state and local government web resources and services.